Sheboygan, WI

10:11 PM CDT on April 21, 2018 (GMT -0500)
Sheboygan County Memorial

Weather History for KSBM - November, 2012

Change the Weather History Date:

Thursday, November 22, 2012

  Actual Average Record
Temperature  
Mean Temperature 53 °F -  
Max Temperature 64 °F 41 °F 64 °F (2012)
Min Temperature 42 °F 27 °F 7 °F (1964)
Degree Days  
Heating Degree Days 12    
Growing Degree Days 3 (Base 50)    
Moisture  
Dew Point 42 °F    
Average Humidity 66    
Maximum Humidity 82    
Minimum Humidity 43    
Precipitation  
Precipitation 0.00 in - - ()
Sea Level Pressure  
Sea Level Pressure 29.79 in    
Wind  
Wind Speed 14 mph (SSW)    
Max Wind Speed 26 mph    
Max Gust Speed 38 mph    
Visibility 10 miles    
Events      
Averages and records for this station are not official NWS values.
T = Trace of Precipitation, MM = Missing Value Source: NWS Daily Summary

Daily Weather History Graph

Daily Weather History Graph

Search for Another Location

Airport or City:

Astronomy

Nov. 22, 2012 Rise Set
Actual Time 6:55 AM CST 4:19 PM CST
Civil Twilight 6:23 AM CST 4:51 PM CST
Nautical Twilight 5:48 AM CST 5:26 PM CST
Astronomical Twilight 5:14 AM CST 6:00 PM CST
Moon 1:14 PM CST 1:04 AM CST
Length of Visible Light 10h 27m
Length of Day
9h 24m
Waxing Gibbous, 71% of the Moon is Illuminated
Nov 22
Waxing Gibbous
Nov 28
Full
Dec 6
Last Quarter
Dec 13
New
Dec 19
First Quarter

Hourly Weather History & Observations

Time (CST) Temp. Windchill Dew Point Humidity Pressure Visibility Wind Dir Wind Speed Gust Speed Precip Events Conditions
12:53 AM 48.0 °F - 41.0 °F 77% 29.98 in 10.0 mi SW 10.4 mph - N/A   Clear
1:53 AM 48.9 °F - 39.9 °F 71% 29.98 in 10.0 mi SSW 11.5 mph - N/A   Clear
2:53 AM 48.0 °F - 39.0 °F 71% 29.97 in 10.0 mi SSW 12.7 mph - N/A   Clear
3:53 AM 45.0 °F 40.1 °F 37.0 °F 74% 29.95 in 10.0 mi South 9.2 mph - N/A   Clear
4:53 AM 45.0 °F 40.1 °F 37.0 °F 74% 29.92 in 10.0 mi South 9.2 mph - N/A   Clear
5:53 AM 42.1 °F 37.1 °F 37.0 °F 82% 29.91 in 8.0 mi South 8.1 mph - N/A   Clear
6:53 AM 44.1 °F 39.0 °F 39.0 °F 82% 29.89 in 6.0 mi South 9.2 mph - N/A   Haze
7:53 AM 46.0 °F 41.9 °F 39.9 °F 79% 29.87 in 6.0 mi South 8.1 mph - N/A   Haze
8:53 AM 54.0 °F - 39.9 °F 59% 29.86 in 10.0 mi South 12.7 mph - N/A   Clear
9:53 AM 57.9 °F - 39.9 °F 51% 29.85 in 10.0 mi SSW 19.6 mph - N/A   Partly Cloudy
10:53 AM 62.1 °F - 39.9 °F 44% 29.81 in 10.0 mi SSW 19.6 mph 27.6 mph N/A   Clear
11:53 AM 64.0 °F - 41.0 °F 43% 29.76 in 10.0 mi SSW 25.3 mph 31.1 mph N/A   Clear
12:53 PM 64.9 °F - 42.1 °F 43% 29.71 in 10.0 mi SSW 25.3 mph 38.0 mph N/A   Clear
1:53 PM 60.1 °F - 45.0 °F 57% 29.70 in 10.0 mi South 18.4 mph - N/A   Clear
2:53 PM 57.0 °F - 46.0 °F 67% 29.68 in 10.0 mi South 15.0 mph 23.0 mph N/A   Clear
3:53 PM 59.0 °F - 45.0 °F 60% 29.68 in 10.0 mi SSW 15.0 mph - N/A   Clear
4:53 PM 57.9 °F - 46.0 °F 65% 29.69 in 10.0 mi SSW 16.1 mph 21.9 mph N/A   Clear
5:53 PM 57.9 °F - 46.0 °F 65% 29.68 in 10.0 mi SSW 15.0 mph 24.2 mph N/A   Clear
6:53 PM 55.9 °F - 46.0 °F 69% 29.68 in 10.0 mi SW 15.0 mph - N/A   Mostly Cloudy
7:53 PM 55.9 °F - 46.9 °F 72% 29.67 in 10.0 mi SW 16.1 mph 21.9 mph N/A   Mostly Cloudy
8:53 PM 57.0 °F - 48.0 °F 72% 29.65 in 10.0 mi SW 20.7 mph 25.3 mph N/A   Mostly Cloudy
9:53 PM 55.0 °F - 46.0 °F 72% 29.65 in 10.0 mi West 18.4 mph 29.9 mph N/A   Partly Cloudy
10:53 PM 46.0 °F 37.2 °F 37.0 °F 71% 29.70 in 9.0 mi West 26.5 mph 38.0 mph N/A   Mostly Cloudy
11:53 PM 44.1 °F 36.8 °F 35.1 °F 71% 29.71 in 10.0 mi West 16.1 mph 21.9 mph N/A   Overcast